Location: Newark
(37.8333°N, 119.5000°W)
Time: 20:48:59
(UTC+00:00)

Tiros 1 despin weight - Pass Details

Date: 28 August 2019
Orbit: 593 x 643 km, 48.2° (Epoch: 22 October)

Event Time Altitude Azimuth Distance (km) Brightness Sun altitude
Rises 10:03:05 0° 305° (NW) 2,855 - -34.3°
Reaches altitude 10° 10:05:29 10° 313° (NW) 1,958 - -34.0°
Maximum altitude 10:09:44 41° 24° (NNE) 894 - -33.5°
Exits shadow 10:13:07 15° 90° (E) 1,649 ? -33.1°
Drops below altitude 10° 10:14:03 10° 95° (E) 1,983 ? -33.0°
Sets 10:16:29 0° 103° (ESE) 2,896 ? -32.6°
